Location: Paderno d�Adda
(45.6667°N, 9.4333°E)
Time: 19:33:13
(UTC+00:00)

Cosmos 2082 Rocket - Pass Details

Date: 19 September 2020
Orbit: 834 x 853 km, 71.0° (Epoch: 27 October)

Event Time Altitude Azimuth Distance (km) Brightness Sun altitude
Rises 20:25:43 0° 338° (NNW) 3,392 6.2 -30.1°
Reaches altitude 10° 20:28:19 10° 346° (NNW) 2,455 5.2 -30.5°
Enters shadow 20:32:08 34° 21° (NNE) 1,352 3.3 -31.0°
